Zi Yuan 2-03

operational
NORAD ID: 28470 Int'l Des: 2004-044 Owner: ZZB Country: CN
LEOCIRCULARRETROGRADESSO

About Zi Yuan 2-03

Description loading...

Live Position

Loading 3D Globe...

Upcoming Passes

Altitude History

Altitude vs Time

uPlot chart will show altitude changes over time

Two-Line Element Set

1 28470U 04044A 26062.39476616 .00006605 00000-0 31967-3 0 9997
2 28470 97.2601 219.9985 0032967 229.5573 130.2785 15.18413876171729
Epoch: Mar 3, 2026 • Age: 19 hours

Current Status

Altitude 526.6 km
Velocity 7.60 km/s
Sub-Earth Point -40.38°S, 143.22°E
Launch Date Nov 6, 2004
Age 21.3 years
Type other

Technical Details

Classification Payload
Mass 1450.00 kg
Dry Mass 1400.00 kg
Total Mass 1450.00 kg
Length 1.80 m
Diameter 2.00 m
Span 9.80 m
Shape Box + Pan
Manufacturer CAST
Bus Type ZY
Phase Status In Orbit
Owner/State ZZB/CN

Large Constellations

Loading constellations...